Weather History for Blytheville Muni Airport, AR

Change the Weather History Date:

Saturday, March 30, 2013

  Actual Average Record
Temperature  
Mean Temperature 46 °F -  
Max Temperature 55 °F 66 °F 84 °F (1963)
Min Temperature 37 °F 46 °F 20 °F (1964)
Degree Days  
Heating Degree Days 19    
Moisture  
Dew Point 47 °F    
Average Humidity 96    
Maximum Humidity 100    
Minimum Humidity 89    
Precipitation  
Precipitation 0.21 in - - ()
Sea Level Pressure  
Sea Level Pressure 30.07 in    
Wind  
Wind Speed 4 mph (ESE)    
Max Wind Speed 13 mph    
Max Gust Speed -    
Visibility 4 miles    
Events Fog , Rain    
Averages and records for this station are not official NWS values.
T = Trace of Precipitation, MM = Missing Value Source: NWS Daily Summary

Daily Weather History Graph

Daily Weather History Graph

Search for Another Location

Airport:

Trip Planner

Search our weather history database for the weather conditions in past years. The results will help you decide how hot, cold, wet, or windy it might be!

Date:

Astronomy

Mar. 30, 2013 Rise Set
Actual Time 6:48 AM CDT 7:19 PM CDT
Civil Twilight 6:22 AM CDT 7:45 PM CDT
Nautical Twilight 5:52 AM CDT 8:15 PM CDT
Astronomical Twilight 5:21 AM CDT 8:46 PM CDT
Moon 11:18 PM CDT (3/30) 8:50 AM CDT (3/30)
Length of Visible Light 13h 23m
Length of Day
12h 31m
Waning Gibbous, 86% of the Moon is Illuminated
Mar 30
Waning Gibbous
Apr 2
Last Quarter
Apr 10
New
Apr 18
First Quarter
Apr 25
Full

Hourly Weather History & Observations

Time (CDT) Temp. Windchill Dew Point Humidity Pressure Visibility Wind Dir Wind Speed Gust Speed Precip Events Conditions
12:16 AM 39.2 °F - 39.2 °F 100% 30.20 in 0.5 mi Calm Calm - N/A Fog Fog
12:39 AM 39.2 °F - 39.2 °F 100% 30.20 in 0.2 mi Calm Calm - N/A Fog Fog
12:53 AM 39.9 °F - 39.0 °F 97% 30.21 in 0.2 mi Calm Calm - N/A Fog Fog
1:09 AM 39.2 °F - 39.2 °F 100% 30.21 in 0.5 mi Calm Calm - N/A Fog Fog
1:53 AM 39.0 °F - 37.9 °F 96% 30.21 in 0.5 mi Calm Calm - N/A Fog Fog
2:05 AM 37.4 °F 33.8 °F 37.4 °F 100% 30.19 in 0.2 mi ENE 4.6 mph - N/A Fog Fog
2:53 AM 39.9 °F 36.7 °F 39.0 °F 97% 30.18 in 0.2 mi NE 4.6 mph - N/A Fog Fog
3:50 AM 39.2 °F 35.9 °F 39.2 °F 100% 30.16 in 0.5 mi ENE 4.6 mph - N/A Fog Fog
3:53 AM 39.9 °F 37.8 °F 39.9 °F 100% 30.17 in 0.5 mi ENE 3.5 mph - N/A Fog Fog
4:42 AM 41.0 °F 39.0 °F 39.2 °F 93% 30.16 in 0.2 mi ENE 3.5 mph - N/A Fog Fog
4:53 AM 41.0 °F - 41.0 °F 100% 30.17 in 0.2 mi Calm Calm - N/A Fog Fog
5:53 AM 42.1 °F 39.2 °F 41.0 °F 96% 30.15 in 0.2 mi East 4.6 mph - N/A Fog Fog
6:53 AM 42.1 °F 40.2 °F 42.1 °F 100% 30.16 in 0.2 mi East 3.5 mph - N/A Fog Fog
7:53 AM 43.0 °F 40.3 °F 42.1 °F 97% 30.17 in 0.2 mi East 4.6 mph - N/A Fog Fog
8:15 AM 44.6 °F 40.2 °F 42.8 °F 93% 30.15 in 0.5 mi East 8.1 mph - N/A Fog Fog
8:31 AM 44.6 °F 41.4 °F 42.8 °F 93% 30.15 in 0.2 mi East 5.8 mph - N/A Fog Fog
8:48 AM 44.6 °F 41.4 °F 44.6 °F 100% 30.15 in 0.8 mi East 5.8 mph - N/A   Mist
8:53 AM 45.0 °F 41.2 °F 45.0 °F 100% 30.16 in 2.5 mi East 6.9 mph - N/A   Overcast
9:02 AM 44.6 °F 43.1 °F 44.6 °F 100% 30.16 in 4.0 mi East 3.5 mph - N/A   Overcast
9:32 AM 46.4 °F 42.9 °F 44.6 °F 93% 30.15 in 5.0 mi East 6.9 mph - N/A   Overcast
9:53 AM 46.9 °F - 46.0 °F 97% 30.15 in 5.0 mi East 6.9 mph - N/A   Mostly Cloudy
10:03 AM 48.2 °F - 46.4 °F 93% 30.14 in 4.0 mi East 5.8 mph - N/A   Overcast
10:53 AM 48.9 °F - 46.9 °F 93% 30.13 in 5.0 mi ENE 8.1 mph - N/A   Overcast
11:38 AM 48.2 °F - 46.4 °F 93% 30.13 in 8.0 mi East 6.9 mph - N/A   Overcast
11:53 AM 50.0 °F - 46.9 °F 89% 30.12 in 9.0 mi ESE 8.1 mph - N/A   Overcast
12:53 PM 50.0 °F - 46.9 °F 89% 30.11 in 8.0 mi East 8.1 mph - 0.00 in Rain Light Rain
1:35 PM 50.0 °F - 48.2 °F 94% 30.09 in 4.0 mi ESE 5.8 mph - 0.08 in Rain Rain
1:46 PM 50.0 °F - 48.2 °F 94% 30.08 in 2.5 mi ESE 6.9 mph - 0.11 in Rain Heavy Rain
1:53 PM 50.0 °F - 48.0 °F 93% 30.08 in 2.0 mi ESE 6.9 mph - 0.14 in Rain Heavy Rain
2:00 PM 50.0 °F - 48.2 °F 94% 30.07 in 2.5 mi East 6.9 mph - 0.03 in Rain Rain
2:05 PM 50.0 °F - 48.2 °F 94% 30.07 in 3.0 mi East 8.1 mph - 0.03 in Rain Rain
2:13 PM 50.0 °F - 48.2 °F 94% 30.06 in 3.0 mi East 8.1 mph - 0.04 in Rain Light Rain
2:53 PM 51.1 °F - 48.9 °F 92% 30.02 in 4.0 mi ESE 12.7 mph - 0.05 in Rain Rain
3:02 PM 51.8 °F - 50.0 °F 94% 30.02 in 6.0 mi ESE 10.4 mph - 0.00 in Rain Light Rain
3:12 PM 51.8 °F - 50.0 °F 94% 30.02 in 6.0 mi SE 10.4 mph - 0.00 in Rain Light Rain
3:53 PM 52.0 °F - 51.1 °F 97% 30.01 in 5.0 mi SE 5.8 mph - 0.00 in Rain Light Rain
4:05 PM 53.6 °F - 51.8 °F 94% 30.00 in 5.0 mi SE 4.6 mph - 0.01 in Rain Light Rain
4:15 PM 53.6 °F - 51.8 °F 94% 29.99 in 5.0 mi ESE 5.8 mph - 0.01 in Rain Light Rain
4:23 PM 53.6 °F - 51.8 °F 94% 29.99 in 5.0 mi SE 5.8 mph - 0.02 in Rain Light Rain
4:53 PM 53.1 °F - 52.0 °F 96% 29.97 in 6.0 mi ESE 5.8 mph - 0.02 in Rain Light Rain
5:19 PM 53.6 °F - 51.8 °F 94% 29.97 in 7.0 mi Calm Calm - 0.00 in Rain Light Rain
5:37 PM 53.6 °F - 51.8 °F 94% 29.97 in 8.0 mi SSE 3.5 mph - 0.00 in   Overcast
5:53 PM 54.0 °F - 52.0 °F 93% 29.96 in 7.0 mi ESE 4.6 mph - 0.00 in   Overcast
6:51 PM 53.6 °F - 53.6 °F 100% 29.95 in 8.0 mi Calm Calm - N/A   Overcast
6:53 PM 55.0 °F - 53.1 °F 93% 29.95 in 8.0 mi Calm Calm - N/A   Overcast
7:53 PM 54.0 °F - 53.1 °F 97% 29.94 in 5.0 mi Calm Calm - N/A   Overcast
8:53 PM 54.0 °F - 53.1 °F 97% 29.96 in 4.0 mi WNW 3.5 mph - N/A   Overcast
9:45 PM 55.4 °F - 53.6 °F 94% 29.96 in 2.0 mi WSW 4.6 mph - N/A   Overcast
9:53 PM 55.0 °F - 54.0 °F 96% 29.96 in 2.0 mi WSW 4.6 mph - N/A   Overcast
10:25 PM 55.4 °F - 53.6 °F 94% 29.96 in 3.0 mi WSW 4.6 mph - N/A   Overcast
10:37 PM 55.4 °F - 53.6 °F 94% 29.95 in 4.0 mi WSW 4.6 mph - N/A   Overcast
10:53 PM 55.0 °F - 54.0 °F 96% 29.96 in 5.0 mi SW 3.5 mph - N/A   Overcast
11:20 PM 55.4 °F - 53.6 °F 94% 29.95 in 6.0 mi WSW 4.6 mph - N/A   Overcast
11:49 PM 55.4 °F - 53.6 °F 94% 29.95 in 4.0 mi West 5.8 mph - N/A   Mostly Cloudy
11:53 PM 55.0 °F - 54.0 °F 96% 29.96 in 5.0 mi West 8.1 mph - N/A   Mostly Cloudy